Tracking 20712 objects as of 27-May-2020
HD Live streaming from Space Station
objects crossing your sky now

CZ-2D DEB

Track CZ-2D DEB now!
10-day predictions


NORAD ID: 38301
Int'l Code: 2010-027F
Perigee: 551.1 km
Apogee: 792.7 km
Inclination: 97.9 °
Period: 98.0 minutes
Semi major axis: 7042 km
RCS: 0.0012 m2 (small)
Launch date: June 15, 2010
Source: People's Republic of China (PRC)
Launch site: Jiuquan Satellite Launch Center, China (JSC)

Note: This is SATELLITE DEBRIS
aabbcc
Your satellite tracking list
Your tracking list is empty




NASA's NSSDC Master Catalog

Two Line Element Set (TLE):
1 38301U 10027F   20145.66185527  .00000531  00000-0  80954-4 0  9996
2 38301  97.8700  43.4768 0171515 272.3643 116.2782 14.68849133520547
Source of the keplerian elements: AFSPC